Waarnemingen

Advertentie
Mijn weer
Medina De Pomar, Spanje (8063): temperatuur & dauwpunt: 02.07.2020 15:00:00 - 08.07.2020 15:00:00 (CEST)Medina De Pomar, Spanje (8063): windsnelheid & windstoten: 02.07.2020 15:00:00 - 08.07.2020 15:00:00 (CEST)Medina De Pomar, Spanje (8063): windrichting: 02.07.2020 15:00:00 - 08.07.2020 15:00:00 (CEST)Medina De Pomar, Spanje (8063): luchtdruk: 02.07.2020 15:00:00 - 08.07.2020 15:00:00 (CEST)Medina De Pomar, Spanje (8063): zicht: 02.07.2020 15:00:00 - 08.07.2020 15:00:00 (CEST)Medina De Pomar, Spanje (8063): Zonneschijnduur: 02.07.2020 15:00:00 - 08.07.2020 15:00:00 (CEST)Medina De Pomar, Spanje (8063): neerslag: 02.07.2020 15:00:00 - 08.07.2020 15:00:00 (CEST)
Datum & Tijd tt [°C] td [°C] ff [km/u] ff [kn] fx [km/u] fx [kn] dd ppp [hPa] vv [km] sd [min] rr [mm]
08.07.2020 15:00:00 - - - - - - - - - - -
08.07.2020 14:00:00 26,6 10,8 6 4 23 12 Z 1015,1 20 60 -
08.07.2020 13:00:00 24,7 12,3 5 3 13 7 Z 1015,7 20 60 0,0
08.07.2020 12:00:00 22,5 11,6 3 2 10 6 ZW 1016,9 20 60 0,0
08.07.2020 11:00:00 19,8 12,3 3 2 8 4 ZZW 1017,3 20 60 0,0
08.07.2020 10:00:00 16,8 11,7 3 2 8 4 ZZO 1018,4 20 60 0,0
08.07.2020 09:00:00 14,1 11,1 3 2 10 5 ZZO 1019,2 20 60 0,0
08.07.2020 08:00:00 11,0 9,6 2 1 6 4 NNO 1019,6 13 0 -
08.07.2020 07:00:00 10,6 9,2 3 2 9 5 NNO 1019,5 14 0 0,0
08.07.2020 06:00:00 10,9 9,2 1 1 7 4 OZO 1019,5 14 0 0,0
08.07.2020 05:00:00 12,0 10,0 3 1 7 4 O 1019,4 14 0 0,0
08.07.2020 04:00:00 13,0 10,8 3 1 11 6 OZO 1019,4 15 0 0,0
08.07.2020 03:00:00 14,1 11,6 6 3 15 8 NNW 1019,6 17 0 0,0
08.07.2020 02:00:00 14,7 11,7 7 4 17 9 N 1019,8 20 0 -
08.07.2020 01:00:00 15,4 12,0 7 4 18 10 N 1019,6 20 0 0,0
08.07.2020 00:00:00 16,2 12,1 7 4 17 9 N 1019,2 20 0 0,0
07.07.2020 23:00:00 17,3 12,2 7 4 26 14 N 1018,7 20 0 0,0
07.07.2020 22:00:00 19,1 11,7 14 8 28 15 NO 1017,5 20 20 0,0
07.07.2020 21:00:00 22,3 11,1 11 6 27 15 NO 1016,5 20 60 0,0
07.07.2020 20:00:00 24,1 8,9 14 8 28 15 NO 1015,9 20 60 -
07.07.2020 19:00:00 26,1 9,0 12 7 26 14 NO 1015,5 20 60 0,0
07.07.2020 18:00:00 27,3 7,1 12 6 29 15 NO 1015,5 20 60 0,0
07.07.2020 17:00:00 27,0 6,4 13 7 35 19 NNO 1016,0 20 60 0,0
07.07.2020 16:00:00 27,3 6,7 13 7 31 17 NNO 1016,2 20 60 0,0
07.07.2020 15:00:00 26,2 7,3 11 6 27 15 N 1016,6 20 60 0,0
07.07.2020 14:00:00 24,7 5,5 9 5 21 12 N 1017,6 20 60 -
07.07.2020 13:00:00 21,9 7,0 5 3 16 9 Z 1018,9 20 60 0,0
07.07.2020 12:00:00 19,3 7,7 5 3 18 10 W 1020,3 20 60 0,0
07.07.2020 11:00:00 16,5 7,7 5 3 14 8 NW 1021,2 20 58 0,0
07.07.2020 10:00:00 14,8 8,1 4 2 9 5 NNO 1022,1 20 60 0,0
07.07.2020 09:00:00 12,0 7,8 2 1 6 4 NO 1022,7 20 44 0,0
07.07.2020 08:00:00 8,1 6,4 2 1 6 3 NNO 1024,1 15 0 -
07.07.2020 07:00:00 8,2 6,4 3 2 13 7 NNO 1023,9 14 0 0,0
07.07.2020 06:00:00 8,8 6,5 3 2 7 4 ONO 1024,0 14 0 0,0
07.07.2020 05:00:00 10,4 7,3 3 2 8 5 NO 1023,9 13 0 0,0
07.07.2020 04:00:00 11,4 8,1 3 1 16 8 NO 1024,2 18 0 0,0
07.07.2020 03:00:00 11,3 8,5 3 1 9 5 N 1024,7 20 0 0,0
07.07.2020 02:00:00 11,9 9,4 3 2 9 5 NNO 1024,9 19 0 -
07.07.2020 01:00:00 12,7 9,9 2 1 13 7 N 1025,0 20 0 0,0
07.07.2020 00:00:00 13,3 10,0 6 4 15 8 NNO 1025,3 19 0 0,0
06.07.2020 23:00:00 14,3 10,8 5 3 20 11 NNO 1025,0 20 0 0,0
06.07.2020 22:00:00 15,7 11,1 8 5 26 14 N 1024,2 20 19 0,0
06.07.2020 21:00:00 17,7 11,7 15 8 30 16 NNO 1023,5 20 60 0,0
06.07.2020 20:00:00 18,4 11,7 16 8 41 22 NO 1023,4 20 60 -
06.07.2020 19:00:00 19,7 12,0 14 8 36 19 NNO 1023,3 20 60 0,0
06.07.2020 18:00:00 20,0 11,8 16 9 40 21 NO 1023,2 20 60 0,0
06.07.2020 17:00:00 21,1 12,7 16 9 40 22 NNO 1023,2 20 60 0,0
06.07.2020 16:00:00 21,7 12,5 21 11 40 22 NNO 1023,0 20 60 0,0
06.07.2020 15:00:00 22,3 12,5 16 8 34 19 NNO 1022,9 20 60 0,0
06.07.2020 14:00:00 22,2 12,7 16 9 36 19 NO 1023,1 20 23 -
06.07.2020 13:00:00 21,0 13,5 16 8 37 20 NO 1023,4 20 31 0,0
06.07.2020 12:00:00 21,5 13,2 10 6 26 14 NO 1022,9 20 47 0,0
06.07.2020 11:00:00 19,8 13,3 9 5 22 12 N 1023,2 20 1 0,0
06.07.2020 10:00:00 18,1 13,6 3 2 8 5 NNW 1023,6 20 0 0,0
06.07.2020 09:00:00 16,8 13,2 2 1 5 3 N 1023,9 20 0 0,0
06.07.2020 08:00:00 15,8 13,0 2 1 5 3 O 1024,0 20 0 -
06.07.2020 07:00:00 15,1 12,7 3 2 7 4 NO 1023,9 20 0 0,0
06.07.2020 06:00:00 14,3 12,3 1 1 7 4 Z 1024,0 20 0 0,0
06.07.2020 05:00:00 14,2 12,2 3 2 10 5 NNO 1023,9 20 0 0,0
06.07.2020 04:00:00 14,5 12,2 2 1 5 3 NNO 1024,0 19 0 0,0
06.07.2020 03:00:00 15,5 12,6 2 1 10 5 ZZW 1024,1 20 0 0,0
06.07.2020 02:00:00 16,2 12,7 4 2 14 8 ONO 1024,3 20 0 -
06.07.2020 01:00:00 17,1 14,0 8 4 21 12 NO 1024,2 20 0 0,0
06.07.2020 00:00:00 17,7 14,2 8 4 18 10 NNO 1023,7 20 0 0,0
05.07.2020 23:00:00 19,2 13,6 9 5 19 10 NNO 1022,7 20 0 0,0
05.07.2020 22:00:00 20,9 13,4 8 4 29 16 NO 1021,6 20 21 0,0
05.07.2020 21:00:00 23,9 13,5 10 5 29 15 NO 1020,3 20 60 0,0
05.07.2020 20:00:00 25,7 13,3 16 9 34 18 NNO 1019,4 20 60 -
05.07.2020 19:00:00 27,5 12,7 12 7 35 19 NNO 1019,0 20 60 0,0
05.07.2020 18:00:00 28,1 13,7 16 9 36 19 N 1018,9 20 60 0,0
05.07.2020 17:00:00 29,7 12,1 16 8 31 17 N 1018,5 20 60 0,0
05.07.2020 16:00:00 30,1 11,6 13 7 28 15 NNO 1018,5 20 60 0,0
05.07.2020 15:00:00 30,2 11,7 10 6 24 13 N 1018,8 20 60 0,0
05.07.2020 14:00:00 29,1 10,3 6 3 18 10 W 1019,6 20 60 -
05.07.2020 13:00:00 27,5 10,6 4 2 11 6 Z 1020,7 20 60 0,0
05.07.2020 12:00:00 25,2 10,3 3 2 8 5 N 1021,7 20 60 0,0
05.07.2020 11:00:00 21,6 8,8 4 2 9 5 N 1023,1 20 60 0,0
05.07.2020 10:00:00 18,5 9,8 2 1 7 4 ZZO 1024,3 20 60 0,0
05.07.2020 09:00:00 15,0 8,9 2 1 6 4 ONO 1025,0 20 60 0,0
05.07.2020 08:00:00 11,5 8,5 0 0 6 3 N 1025,6 20 24 -
05.07.2020 07:00:00 10,3 7,7 1 1 7 4 O 1026,1 20 0 0,0
05.07.2020 06:00:00 10,8 8,0 2 1 7 4 NO 1025,8 20 0 0,0
05.07.2020 05:00:00 11,8 9,0 2 1 11 6 N 1025,5 20 0 0,0
05.07.2020 04:00:00 12,4 9,2 4 2 6 3 NNO 1025,7 20 0 0,0
05.07.2020 03:00:00 13,3 9,7 3 1 8 5 NNO 1026,0 20 0 0,0
05.07.2020 02:00:00 14,7 10,3 0 0 8 4 N 1026,1 20 0 -
05.07.2020 01:00:00 16,2 10,8 4 2 7 4 N 1026,0 20 0 0,0
05.07.2020 00:00:00 18,6 11,2 5 3 11 6 NO 1025,3 20 0 0,0
04.07.2020 23:00:00 19,8 11,8 4 2 10 5 N 1024,4 20 0 0,0
04.07.2020 22:00:00 21,6 11,6 4 2 23 13 N 1023,5 20 22 0,0
04.07.2020 21:00:00 24,1 11,4 12 6 32 17 NO 1022,3 20 60 0,0
04.07.2020 20:00:00 25,4 10,8 14 7 31 17 NNO 1021,4 20 60 -
04.07.2020 19:00:00 26,5 9,3 10 6 31 17 NNO 1021,2 20 60 0,0
04.07.2020 18:00:00 27,5 9,3 13 7 33 18 NNO 1020,9 20 60 0,0
04.07.2020 17:00:00 27,7 8,5 8 4 23 12 NO 1021,0 20 59 0,0
04.07.2020 16:00:00 27,9 7,1 8 4 20 11 NNO 1021,1 20 60 0,0
04.07.2020 15:00:00 26,7 5,0 6 3 18 10 NNO 1021,7 20 60 0,0
04.07.2020 14:00:00 24,6 3,2 5 3 13 7 NW 1023,2 20 60 -
04.07.2020 13:00:00 22,3 5,6 4 2 13 7 ONO 1023,9 20 60 0,0
04.07.2020 12:00:00 19,2 7,6 4 2 11 6 OZO 1024,6 20 60 0,0
04.07.2020 11:00:00 15,5 9,2 4 2 11 6 ZZW 1025,6 20 60 0,0
04.07.2020 10:00:00 12,3 8,3 5 3 9 5 ZW 1027,1 20 60 0,0
04.07.2020 09:00:00 9,7 7,0 1 1 6 3 OZO 1027,4 20 56 0,0
04.07.2020 08:00:00 6,2 5,0 4 2 7 4 NNO 1028,4 20 4 -
04.07.2020 07:00:00 5,3 3,8 1 1 5 3 O 1028,2 20 0 0,0
04.07.2020 06:00:00 6,2 4,6 3 1 6 3 NNO 1027,7 20 0 0,0
04.07.2020 05:00:00 6,9 5,3 3 2 8 4 NNO 1027,6 20 0 0,0
04.07.2020 04:00:00 7,5 5,8 2 1 5 3 NO 1027,2 20 0 0,0
04.07.2020 03:00:00 8,6 6,7 1 1 5 3 NW 1027,4 20 0 0,0
04.07.2020 02:00:00 9,7 7,4 2 1 4 2 Z 1027,4 20 0 -
04.07.2020 01:00:00 10,8 7,8 2 1 8 4 ONO 1027,0 20 0 0,0
04.07.2020 00:00:00 12,5 8,5 4 2 9 5 NNO 1026,5 20 0 0,0
03.07.2020 23:00:00 14,0 9,2 3 2 16 9 NO 1025,7 20 0 0,0
03.07.2020 22:00:00 15,4 9,7 9 5 31 17 NNO 1024,6 20 6 0,0
03.07.2020 21:00:00 17,5 10,4 13 7 35 19 NNO 1023,4 20 47 0,0
03.07.2020 20:00:00 19,8 9,3 15 8 29 16 NNO 1022,4 20 60 -
03.07.2020 19:00:00 21,4 8,0 9 5 28 15 NNO 1022,0 20 60 0,0
03.07.2020 18:00:00 21,6 7,4 8 5 31 17 NNO 1022,0 20 60 0,0
03.07.2020 17:00:00 21,4 6,8 10 6 28 15 NNO 1022,4 20 60 0,0
03.07.2020 16:00:00 21,2 6,2 10 5 31 17 NO 1022,5 20 60 0,0
03.07.2020 15:00:00 20,9 5,6 10 5 28 15 NNO 1022,9 20 59 0,0
03.07.2020 14:00:00 20,1 5,8 12 7 31 17 NO 1023,5 20 59 -
03.07.2020 13:00:00 19,5 5,9 8 4 23 13 N 1023,7 20 58 0,0
03.07.2020 12:00:00 19,0 5,1 6 3 19 10 O 1023,8 20 58 0,0
03.07.2020 11:00:00 15,7 5,6 9 5 18 10 NO 1024,5 20 1 0,0
03.07.2020 10:00:00 15,0 7,8 5 3 12 7 NO 1024,6 20 19 0,0
03.07.2020 09:00:00 14,2 8,1 4 2 10 5 N 1024,6 20 8 0,0
03.07.2020 08:00:00 12,9 8,5 3 2 8 5 N 1024,7 20 0 -
03.07.2020 07:00:00 12,6 8,7 2 1 10 5 NNO 1024,4 20 0 0,0
03.07.2020 06:00:00 12,6 8,5 2 1 9 5 NNO 1024,4 20 0 0,0
03.07.2020 05:00:00 12,6 8,5 3 2 9 5 NNO 1024,4 20 0 0,0
03.07.2020 04:00:00 12,7 8,8 3 2 11 6 NO 1024,6 20 0 0,0
03.07.2020 03:00:00 12,4 8,7 4 2 9 5 NNO 1024,7 20 0 0,0
03.07.2020 02:00:00 12,3 8,5 3 2 14 8 NO 1024,6 20 0 -
03.07.2020 01:00:00 13,1 8,9 7 4 24 13 NNO 1024,6 20 0 0,0
03.07.2020 00:00:00 13,4 9,0 8 5 22 12 NO 1024,5 20 0 0,0
02.07.2020 23:00:00 13,6 9,0 8 4 19 10 NO 1023,8 20 0 0,0
02.07.2020 22:00:00 14,0 9,0 9 5 23 12 NO 1023,1 20 0 0,0
02.07.2020 21:00:00 14,3 8,3 11 6 31 17 NO 1022,7 20 0 0,0
02.07.2020 20:00:00 14,6 7,8 14 8 30 16 NO 1021,9 20 0 -
02.07.2020 19:00:00 15,0 8,9 13 7 31 17 NNO 1021,6 20 0 0,0
02.07.2020 18:00:00 15,9 10,4 14 8 34 18 NO 1020,7 20 0 0,0
02.07.2020 17:00:00 16,9 10,8 14 8 29 16 NNO 1019,9 20 0 0,0
02.07.2020 16:00:00 17,6 10,8 12 7 26 14 N 1019,5 20 0 0,0
02.07.2020 15:00:00 17,5 11,6 9 5 24 13 NNO 1019,6 20 0 0,0

tt = temperatuur
td = dauwpunt
ff = windsnelheid
fx = windstoten
dd = windrichting
ppp = luchtdruk
vv = zicht
sd = Zonneschijnduur
rr = neerslag

Weerstations in de omgeving